Starlink 2036

operational
NORAD ID: 47652 Int'l Des: 2021-012 Owner: SPXS Country: US Constellation: starlink
LEOCIRCULAR

About Starlink 2036

Description loading...

Live Position

Loading 3D Globe...

Upcoming Passes

Altitude History

Altitude vs Time

uPlot chart will show altitude changes over time

Two-Line Element Set

1 47652U 21012AJ 26071.00002315 .00034481 00000-0 76717-3 0 9998
2 47652 53.1607 53.6076 0001880 96.8809 91.6201 15.43346140 5816
Epoch: Mar 12, 2026 • Age: 17 hours

Current Status

Altitude 446.6 km
Velocity 7.64 km/s
Sub-Earth Point -31.88°S, 171.11°W
Launch Date Feb 16, 2021
Age 5 years
Type internet

Technical Details

Classification Payload
Mass 260.00 kg
Dry Mass 248.00 kg
Total Mass 260.00 kg
Length 0.20 m
Diameter 2.80 m
Span 9.00 m
Shape Box + pan
Manufacturer SPXS
Bus Type Starlink
Phase Status In Orbit
Owner/State SPXS/US

Large Constellations

Loading constellations...